Theta_e
317 320 320 320 321 319 316 313 313 315 316 316 317 318 319 320 319 317 318 320 316 316 321 319 318 320 320 320 316 313 316 314 311 311 309 307 306 305 304 303 302 302 301 301 300 300 300 300 300 300 301 302 304 304 305 306 306 307 308 310 312 314 315 316 317 318 319 319 319 320 319 319 319 320 320 320 320 320 320 320 320 320 320 321 321 321
315 319 320 321 319 317 315 314 312 313 313 314 316 317 319 320 319 318 318 319 315 316 323 320 317 321 320 318 315 315 319 314 310 310 307 306 305 304 304 303 302 302 301 300 300 299 299 300 300 299 300 301 301 302 303 304 304 305 306 307 308 310 311 312 312 313 314 314 316 316 316 317 316 316 316 316 316 317 317 317 317 317 317 317 317 318
316 317 318 316 315 315 316 315 315 315 315 316 318 318 320 321 320 322 321 320 317 316 325 325 318 319 320 315 312 313 313 309 308 308 307 306 305 304 303 302 302 301 300 300 299 298 299 299 299 299 299 299 299 300 302 303 303 304 305 305 306 307 308 308 309 309 310 310 312 312 312 312 312 311 311 312 312 312 312 312 313 313 314 314 314 314
319 320 317 313 314 315 316 317 317 317 318 320 320 320 322 321 320 325 325 323 320 316 320 322 318 320 321 314 310 309 308 307 306 306 305 305 304 303 303 302 301 300 300 299 298 298 297 297 298 298 298 298 299 299 300 301 302 302 303 304 305 305 306 306 306 307 307 308 308 309 308 308 308 307 307 308 308 308 308 308 308 308 308 309 309 310
321 322 318 316 317 317 318 320 319 319 322 325 324 322 322 322 321 323 323 322 322 321 320 317 321 329 327 316 312 309 307 307 306 305 305 304 303 302 301 301 300 300 299 298 298 297 296 296 296 297 297 297 298 298 298 299 299 301 302 303 304 304 304 305 305 305 306 306 306 306 306 306 306 305 305 305 305 306 306 306 307 306 305 304 304 305
319 318 318 319 320 320 321 322 323 324 324 327 328 325 322 323 323 322 321 321 323 327 322 316 323 335 334 323 315 310 309 308 306 305 305 304 303 302 301 301 300 299 298 297 296 296 295 295 295 295 296 296 297 297 297 297 298 299 300 301 302 302 303 303 304 304 304 304 304 304 304 303 303 302 301 301 302 303 304 305 306 306 305 304 303 303
319 317 318 321 322 323 323 324 327 325 322 324 327 326 324 322 321 322 320 320 326 327 320 317 323 328 329 326 317 310 310 308 306 305 304 303 302 302 301 300 299 299 298 297 295 294 294 294 294 294 295 295 295 296 296 297 297 298 298 299 300 300 301 301 302 302 303 303 302 302 301 301 300 299 299 300 301 301 303 304 304 304 305 305 304 303
320 318 320 320 321 324 322 324 326 323 325 328 324 325 328 324 322 323 320 320 324 323 320 322 322 320 322 322 315 311 311 309 306 305 304 303 302 301 301 300 299 299 298 297 296 294 293 293 293 293 293 294 294 295 295 296 296 297 297 297 298 298 299 299 300 301 301 301 301 301 300 300 299 299 299 299 300 301 301 302 302 302 303 303 303 303
319 318 322 322 321 322 325 328 326 322 325 328 321 321 325 324 323 323 320 321 321 318 322 324 318 317 324 322 312 311 314 311 307 305 303 303 302 301 300 300 299 298 297 296 295 294 292 292 292 292 292 293 293 294 294 294 295 295 295 296 297 297 297 298 298 299 299 299 299 299 299 299 299 299 299 299 299 300 300 300 300 300 300 301 301 301
318 316 321 325 323 324 329 329 325 323 323 321 319 322 326 325 324 322 319 322 322 318 321 323 318 317 325 325 314 311 316 314 308 305 303 303 302 301 301 300 298 298 297 295 293 292 292 291 291 291 292 292 292 292 293 293 293 294 294 295 295 295 295 296 297 298 298 298 298 298 298 298 298 298 298 299 298 298 299 298 298 298 298 299 299 299
318 314 316 321 322 325 327 321 318 321 319 317 320 326 329 328 327 326 323 322 322 322 323 322 320 316 322 328 321 314 315 313 307 304 303 302 302 301 300 299 298 297 296 295 293 291 291 291 291 291 291 291 291 292 292 292 292 292 292 292 293 292 293 294 295 296 296 296 296 296 296 296 296 296 297 297 296 296 297 296 296 297 297 297 298 298
318 315 318 322 319 320 321 316 316 318 316 319 325 326 327 328 327 327 326 322 321 326 327 323 318 315 320 326 320 312 310 308 307 305 303 302 302 301 299 298 297 296 296 295 294 292 291 291 291 290 290 290 290 290 291 291 291 291 291 291 291 290 290 291 292 292 292 292 292 292 293 292 292 292 292 291 291 291 292 292 293 294 294 295 296 296
321 319 320 320 317 316 319 319 318 318 317 320 324 322 323 325 323 322 324 321 322 324 321 318 316 317 321 320 313 309 306 306 306 304 302 302 301 300 299 298 297 296 295 295 294 293 291 290 291 290 290 290 289 289 289 289 290 289 289 289 289 288 288 288 289 289 289 289 289 289 289 289 288 288 288 288 287 287 288 288 288 289 289 289 290 291
325 324 318 316 317 318 320 321 321 322 319 318 321 322 323 324 323 326 324 317 318 321 317 314 316 319 322 316 308 305 303 303 304 303 301 301 300 299 299 298 297 296 295 294 294 293 290 290 291 290 290 290 289 289 288 288 288 288 288 288 288 287 287 287 287 287 287 287 287 287 287 287 287 287 286 286 286 286 286 286 286 286 286 286 286 287
326 326 322 319 319 318 317 318 324 329 321 316 320 322 322 326 326 327 326 319 320 324 318 313 316 324 325 313 303 302 301 300 302 301 300 300 299 299 298 297 297 295 295 294 294 293 290 290 291 291 291 291 290 289 288 288 288 287 288 287 287 287 287 287 286 286 286 286 286 286 286 286 286 286 286 286 286 286 287 286 286 286 286 286 286 286
322 326 326 319 315 316 316 318 324 329 322 316 317 318 320 324 323 321 323 322 321 323 320 318 320 320 315 306 301 302 301 300 301 300 299 300 298 298 298 297 296 296 295 295 295 293 290 290 291 291 291 291 290 289 288 288 288 287 287 287 287 287 287 287 287 287 287 287 287 287 287 287 287 287 287 287 287 287 287 287 287 287 287 287 287 287
320 324 323 315 313 316 317 317 319 322 322 316 315 320 321 319 320 322 322 318 316 320 320 321 320 313 308 307 302 301 302 300 300 299 299 299 299 298 298 298 297 296 295 295 295 292 290 290 291 291 292 291 290 289 288 288 287 287 287 287 287 287 287 287 287 287 287 287 287 287 287 287 287 287 287 287 287 287 287 287 287 287 287 287 287 287
319 323 322 316 318 316 311 314 316 315 318 319 319 322 318 315 319 324 324 321 319 320 320 320 320 315 314 313 304 301 304 302 300 300 300 299 300 299 299 298 297 296 295 295 294 291 290 290 290 291 292 291 290 289 288 288 287 287 287 287 287 288 287 288 288 288 288 288 288 288 288 287 287 287 287 287 287 287 287 287 287 287 287 287 287 287
318 320 321 315 317 317 312 315 318 313 312 318 321 319 316 318 323 322 320 322 322 319 321 323 320 317 317 314 308 305 305 302 301 301 300 300 300 299 299 299 298 297 296 295 295 292 290 290 290 291 291 291 290 288 288 288 288 288 288 288 288 288 288 288 288 288 288 288 288 288 288 288 288 288 288 288 288 288 288 287 287 287 287 287 287 287
319 319 321 315 313 316 316 317 322 318 312 313 315 315 316 319 322 321 318 321 322 317 319 321 318 320 321 317 313 309 304 301 302 301 301 300 299 299 299 298 298 298 297 296 296 293 291 290 290 290 291 291 290 289 289 289 289 289 288 288 288 288 288 288 288 288 288 288 288 288 288 288 288 288 288 288 287 288 288 287 287 287 287 287 287 287
318 316 320 320 314 314 317 318 322 324 317 316 317 317 317 316 318 320 316 317 322 320 321 320 316 321 323 314 313 311 303 301 301 300 301 300 300 300 299 298 298 298 297 297 296 294 291 290 291 290 290 290 290 290 289 289 289 289 289 289 288 288 288 288 288 288 288 288 288 288 288 288 288 287 287 287 287 287 287 287 287 287 287 287 287 286
317 317 322 325 320 319 321 317 317 320 319 321 323 320 320 319 318 319 316 316 318 318 322 321 317 321 318 309 309 308 303 301 301 301 302 301 301 301 300 298 298 297 298 297 296 293 291 291 291 291 290 290 290 290 290 290 289 289 289 289 289 289 288 288 288 288 288 288 288 288 288 288 288 287 287 287 287 287 287 287 286 286 286 286 286 286
317 320 323 324 321 319 317 312 312 314 314 317 318 316 319 320 319 320 318 317 317 316 317 317 317 319 312 306 307 305 302 302 301 302 303 302 301 301 300 299 298 298 297 296 294 292 291 292 291 291 291 291 290 290 290 290 290 290 290 290 289 289 289 289 288 288 288 287 287 287 287 287 287 287 287 287 287 287 286 286 286 286 285 285 285 285
317 319 320 321 321 318 314 311 312 313 312 313 315 314 315 317 318 318 316 316 318 317 315 314 315 315 310 307 307 304 302 303 302 303 304 304 302 301 300 299 298 298 296 295 294 292 291 292 291 291 291 291 291 290 290 290 290 290 290 289 289 289 289 289 288 288 288 287 287 287 287 287 287 287 287 287 286 286 286 285 285 285 285 284 284 284
317 317 318 319 320 318 315 313 314 316 315 314 313 312 311 313 314 312 311 313 314 315 315 314 314 314 309 307 306 305 305 305 304 304 304 306 305 302 300 299 298 297 296 296 295 293 292 292 291 292 292 291 291 290 290 290 289 289 289 289 289 288 289 289 289 289 288 288 287 287 287 287 287 286 286 286 286 285 285 285 284 284 284 284 283 283
314 315 317 318 317 316 315 314 315 317 315 312 310 309 309 310 310 309 309 311 312 313 313 312 313 312 309 307 307 306 306 306 306 305 302 304 305 302 299 298 297 297 297 296 297 295 293 291 291 292 292 291 291 290 290 290 289 289 289 289 289 289 289 289 288 288 288 288 287 287 287 287 286 286 285 285 284 284 284 284 283 283 283 283 283 283
314 313 314 316 315 314 314 313 312 313 314 313 311 310 309 308 307 307 308 310 310 311 310 309 311 311 309 308 308 307 307 307 308 307 303 302 303 301 298 297 297 297 297 296 296 296 294 291 290 291 292 291 291 290 290 289 289 289 289 289 289 289 288 288 288 288 287 287 287 286 286 286 285 285 285 284 283 283 283 282 282 282 282 282 282 282
314 312 312 314 314 312 311 312 310 309 312 313 311 311 310 308 307 307 307 308 309 309 308 308 308 309 309 308 307 308 308 307 307 308 305 303 302 300 297 296 298 297 296 296 296 296 296 293 290 290 291 290 290 290 289 289 289 289 289 289 289 288 288 287 287 287 287 286 286 286 286 286 285 285 284 284 283 282 282 281 281 281 281 281 281 281
314 312 310 311 313 312 309 309 308 307 308 309 308 309 309 307 306 306 305 306 306 306 306 306 306 306 306 305 305 307 307 306 306 306 304 302 301 299 297 296 297 297 295 295 294 295 296 293 289 288 289 289 289 290 290 289 289 289 289 289 289 289 288 287 287 287 287 286 286 286 285 285 284 284 283 283 282 281 281 280 280 280 279 279 279 279
311 311 308 308 311 310 306 306 306 305 305 306 305 305 305 304 304 303 303 304 304 304 304 304 304 304 303 302 302 305 306 304 303 302 301 301 301 299 297 296 297 295 295 295 295 295 293 289 287 287 288 289 289 289 289 289 288 288 288 288 288 288 287 287 287 286 286 286 285 284 284 283 283 282 282 281 280 279 279 278 278 278 278 278 277 277
308 309 306 305 308 307 303 302 303 303 303 302 302 301 300 300 300 300 301 301 301 302 302 302 302 302 301 302 302 303 302 300 299 300 300 301 300 298 296 297 297 296 296 297 295 294 291 286 285 287 288 288 289 288 288 288 287 287 287 287 287 287 286 286 286 285 284 284 283 282 282 281 281 280 280 279 278 278 277 277 277 277 276 276 276 276
307 307 304 304 308 307 301 299 301 302 301 300 300 299 298 298 298 298 299 299 300 300 299 300 301 300 300 301 300 299 298 298 298 299 298 298 297 296 296 297 297 297 298 296 293 293 293 288 285 287 287 287 288 287 287 287 286 286 286 285 285 285 284 284 284 283 282 281 281 280 280 279 279 278 277 277 276 276 276 275 275 275 275 275 275 275
306 307 306 305 307 305 301 299 300 301 301 300 299 298 298 298 298 297 297 298 298 298 299 300 300 299 300 300 299 297 296 297 297 296 296 295 294 294 296 296 296 296 295 293 292 293 292 288 286 287 287 287 286 286 286 285 285 285 284 284 284 283 283 283 282 281 281 280 279 278 277 277 276 276 275 275 275 274 274 274 274 274 273 273 273 273
304 306 307 305 305 304 301 299 300 301 301 300 299 299 298 297 298 298 297 297 298 299 300 300 299 299 300 299 299 299 297 296 295 294 294 294 293 293 294 295 296 296 293 291 291 290 287 286 287 287 287 286 285 285 284 284 284 283 283 283 282 282 282 281 280 279 279 278 277 276 275 275 274 274 274 273 273 273 273 272 272 272 271 271 271 270
303 304 305 304 304 303 300 300 301 302 300 300 300 301 299 298 298 298 297 297 298 298 299 299 299 300 300 299 300 299 296 295 294 293 293 294 294 294 294 295 295 294 292 292 291 288 285 287 287 286 285 284 284 283 283 283 283 282 282 282 281 281 280 279 278 277 276 275 274 274 274 273 273 273 272 272 272 271 271 270 270 269 269 268 268 268
303 303 304 304 302 300 299 301 302 301 299 299 299 298 296 296 296 296 296 297 297 297 297 298 298 298 298 299 297 294 293 292 292 294 296 296 295 294 294 295 295 293 291 290 289 288 287 288 287 286 284 283 283 283 282 282 282 281 281 281 280 279 278 277 277 275 274 273 273 272 272 272 271 271 271 271 270 270 269 269 268 267 267 266 266 266
302 302 303 303 302 302 301 301 301 300 299 299 298 296 295 295 296 296 297 296 296 296 296 296 297 296 295 295 293 291 292 291 291 293 295 295 294 293 291 292 292 290 289 288 288 289 289 288 287 285 284 283 282 282 282 281 281 280 280 279 278 277 277 276 275 273 272 272 271 271 271 270 270 269 269 269 268 268 267 267 266 266 265 265 265 264
300 301 302 302 302 302 302 301 300 300 299 298 297 296 295 296 297 297 296 297 298 298 295 295 297 296 294 293 292 292 292 291 292 293 293 292 293 293 290 288 288 289 290 288 288 288 287 286 285 284 283 282 281 281 281 280 280 279 278 277 276 276 275 274 273 272 271 271 270 270 269 269 268 268 267 267 266 266 266 265 265 265 264 264 264 263
297 298 300 301 301 300 300 301 300 299 298 298 297 296 294 295 297 297 295 297 300 298 294 294 297 297 296 293 292 292 292 292 293 294 292 291 291 291 290 288 287 288 289 288 287 287 285 284 283 282 282 281 281 280 279 278 277 276 276 275 275 274 273 272 271 270 270 269 269 269 269 268 268 267 266 265 265 265 264 264 264 264 263 263 263 263
296 296 298 299 300 299 298 298 298 297 297 297 296 295 293 293 296 297 296 297 300 297 294 295 297 298 296 293 291 291 293 294 294 293 292 291 289 287 288 288 286 286 287 287 287 286 284 283 282 281 280 280 279 278 277 276 275 275 274 274 273 272 271 270 269 269 269 268 268 269 268 268 267 266 265 265 264 264 264 263 263 263 263 263 262 262
294 295 297 298 299 298 298 297 296 296 297 296 295 294 293 293 294 295 296 298 299 296 294 296 299 299 295 292 291 291 292 293 293 293 294 292 289 288 287 286 286 287 287 286 285 284 282 281 281 280 279 278 277 276 275 274 274 274 273 273 272 271 269 269 268 268 268 268 268 268 267 266 265 265 264 264 264 263 263 263 263 263 262 262 262 262
293 294 294 296 297 297 296 297 296 296 297 296 294 293 292 293 294 295 297 298 298 297 294 294 296 297 294 290 290 291 291 291 291 292 293 292 291 289 286 284 284 284 284 283 283 282 281 280 279 278 277 276 275 274 273 273 273 273 272 271 270 269 268 268 267 267 267 267 267 266 266 265 265 264 264 264 263 263 263 263 262 262 262 262 262 261
293 293 293 294 296 296 295 296 296 295 295 294 293 292 291 294 297 299 297 296 296 297 296 293 292 293 291 290 289 289 290 291 290 290 291 291 290 288 284 283 283 282 281 281 281 280 280 279 277 276 275 274 274 273 272 272 272 271 271 270 269 268 267 267 266 266 265 265 265 265 265 265 264 264 263 263 263 263 262 262 262 262 262 261 261 261
293 294 294 293 293 294 295 294 294 296 295 292 294 295 293 293 296 297 297 295 294 295 295 293 292 290 289 290 290 289 290 290 290 290 290 290 290 288 283 282 282 281 281 280 280 279 279 278 276 275 274 273 272 271 271 271 271 270 269 269 268 267 266 266 265 264 264 264 264 264 264 264 263 263 263 263 263 262 262 262 262 262 261 261 261 261
294 294 295 296 294 293 294 295 295 296 295 292 293 296 295 293 293 294 295 295 295 294 293 293 293 291 288 288 289 289 290 289 289 290 290 290 290 288 284 282 281 281 280 279 279 278 277 276 275 274 272 272 271 270 270 270 270 269 268 268 267 266 265 265 264 264 264 264 264 264 263 263 263 263 263 263 262 262 262 262 262 261 261 261 261 261
294 292 291 294 295 292 292 293 293 294 294 291 292 294 294 293 293 293 293 294 295 295 293 292 293 292 290 288 289 289 289 289 289 289 289 289 289 286 281 280 280 280 279 278 277 276 275 274 273 272 271 271 270 270 270 269 269 268 267 266 266 265 264 264 263 263 263 263 263 263 263 263 263 263 262 262 262 262 262 262 261 261 261 261 261 261
293 291 290 292 294 293 292 293 292 292 293 292 291 292 293 292 291 291 291 292 293 293 292 292 292 292 290 289 289 289 289 289 289 288 288 289 289 284 279 278 278 278 278 277 276 275 274 273 272 271 270 270 270 269 268 268 268 267 266 265 265 264 264 263 263 263 263 263 263 262 262 262 262 262 262 262 262 262 262 262 261 261 261 261 261 261
293 292 291 292 292 291 293 294 292 291 292 291 290 290 291 291 291 290 290 290 291 291 290 290 289 290 291 289 289 289 289 288 288 288 287 288 287 282 278 277 277 276 276 276 275 274 273 272 271 270 270 269 269 268 267 267 267 266 265 265 265 264 263 263 263 262 262 262 262 262 262 262 262 262 262 262 262 261 261 261 261 261 261 261 261 261
293 292 293 293 291 290 291 292 291 290 290 290 290 290 290 290 291 290 290 289 289 289 289 288 286 287 288 289 289 289 289 289 288 287 287 288 286 281 278 277 276 275 275 274 273 272 272 271 270 269 269 268 267 266 266 267 267 266 265 265 264 263 263 262 262 262 262 262 262 262 262 262 261 261 261 261 261 261 261 261 261 261 262 262 263 263
292 291 292 292 292 291 291 291 291 290 290 291 290 290 290 289 289 289 290 290 289 289 289 289 287 286 285 286 287 287 289 289 287 285 286 287 284 280 278 276 275 274 273 272 271 271 270 270 269 268 267 267 266 265 265 266 266 265 265 264 264 263 262 262 262 262 262 262 261 261 261 261 261 261 261 261 261 261 261 261 261 262 263 263 263 264
291 291 291 290 291 291 291 291 291 291 291 291 291 290 290 289 289 289 289 289 289 289 289 289 289 288 287 285 283 284 288 288 284 283 286 284 280 278 277 276 274 273 272 271 270 270 269 268 268 267 266 266 265 264 264 265 266 265 264 264 263 263 262 262 261 261 261 261 261 261 261 261 261 261 261 261 261 261 260 260 261 262 263 263 263 264
Wind_Speed
3 3 2 5 8 11 12 11 10 6 1 2 2 2 5 6 6 6 5 6 0 1 7 4 3 6 8 11 11 6 5 5 5 9 7 6 7 6 7 7 8 8 7 10 17 21 23 25 26 27 29 31 32 33 32 33 32 31 30 29 28 26 23 21 20 17 15 14 12 12 12 12 11 9 8 7 6 5 4 3 3 4 6 8 11 14
3 4 8 12 12 9 6 6 5 4 2 2 4 4 6 5 7 7 5 6 1 2 5 2 3 7 9 10 10 6 8 8 6 8 7 7 7 6 7 7 7 6 6 10 15 20 23 25 26 28 30 31 31 31 32 32 31 30 30 29 28 26 25 24 22 20 19 17 15 14 13 12 12 11 11 10 9 8 8 7 7 7 6 6 7 9
1 5 13 12 5 1 0 4 5 5 5 4 3 2 5 4 4 7 5 4 3 1 4 4 4 7 10 6 7 8 7 6 6 8 7 6 7 6 6 6 6 6 7 8 11 16 21 22 25 27 29 30 30 30 31 31 30 30 29 29 27 26 25 24 21 20 20 18 16 16 15 14 15 15 13 11 10 10 10 10 10 10 9 9 9 8
3 7 12 7 5 2 3 3 5 4 3 4 4 3 5 4 1 4 5 4 3 1 3 3 4 6 7 1 8 7 6 8 9 10 9 7 7 7 6 6 6 7 7 8 9 12 17 21 25 27 28 29 30 31 31 30 30 30 29 28 26 25 24 23 21 19 18 16 15 16 16 15 15 15 13 11 11 10 11 12 12 13 12 12 11 10
8 8 3 3 6 6 5 3 4 4 3 4 6 6 6 5 5 6 3 4 4 4 2 3 5 5 5 1 5 5 5 8 8 9 9 7 7 7 7 7 7 7 6 7 8 9 14 19 22 25 27 28 30 30 29 28 29 28 28 27 25 24 23 22 20 18 16 16 15 15 15 15 16 17 17 17 16 14 12 12 12 13 13 13 13 12
11 7 2 3 3 5 5 5 4 6 4 4 5 9 10 8 7 5 2 4 4 4 3 4 4 5 5 1 4 4 5 7 6 7 7 6 6 6 7 7 6 6 6 6 7 9 12 17 20 24 26 27 28 27 27 27 28 29 28 27 26 25 23 22 20 18 18 19 19 20 20 21 21 22 22 22 21 18 15 12 10 10 10 11 12 12
6 3 4 5 5 5 5 5 5 7 5 3 5 7 8 6 4 4 1 2 1 4 3 4 1 5 6 3 4 5 5 6 5 6 6 5 5 5 5 5 4 5 5 6 7 9 12 15 18 21 23 25 25 24 25 27 29 30 30 29 28 27 25 23 21 20 20 22 23 24 25 25 24 23 22 21 21 19 16 13 11 9 8 8 9 10
2 2 3 6 5 5 5 5 6 7 7 3 4 4 5 5 4 4 4 2 3 2 5 2 2 4 6 4 4 7 7 5 4 5 5 4 4 5 4 4 4 5 5 5 6 8 11 14 17 19 21 22 23 23 26 27 29 29 30 30 30 29 28 26 24 23 23 23 23 23 24 25 24 23 22 20 19 18 16 15 15 13 10 9 8 8
1 2 4 6 4 4 5 5 6 8 5 6 5 5 6 6 6 4 5 2 1 2 5 3 2 2 6 4 2 6 5 4 4 4 4 3 3 4 4 4 5 4 5 5 5 7 10 14 16 18 20 22 23 25 26 27 27 28 29 30 30 30 29 28 26 26 26 25 24 23 24 25 24 22 20 19 18 18 17 17 17 16 15 13 11 10
1 3 6 7 5 6 5 4 6 8 4 4 4 5 5 5 4 4 5 3 2 2 5 6 5 3 5 4 2 3 3 4 5 4 4 3 3 3 3 4 4 4 5 5 6 9 11 14 15 18 21 23 23 24 25 26 27 28 29 30 31 30 29 28 28 28 28 27 26 26 26 26 25 23 22 21 21 21 19 19 19 18 17 16 14 12
2 1 3 4 4 5 4 2 2 4 4 4 5 6 6 5 5 4 2 4 2 4 7 8 10 7 4 5 4 4 3 5 8 5 5 4 3 3 3 4 4 4 4 4 6 9 12 14 16 19 22 23 23 24 26 27 27 28 28 29 30 29 29 29 29 29 29 28 28 29 29 29 28 27 27 27 27 26 24 24 23 21 20 18 17 15
5 2 2 2 2 4 5 3 3 3 4 5 5 4 3 4 4 4 4 4 1 6 7 5 7 6 4 5 3 3 4 3 10 10 10 8 6 4 4 3 3 3 3 4 4 6 10 12 16 19 21 22 23 25 26 26 27 27 27 28 29 30 29 29 29 29 29 29 30 30 30 31 30 30 30 30 29 28 28 28 27 26 25 24 22 21
4 4 4 5 2 4 5 3 3 5 5 5 4 5 3 3 3 2 3 0 3 7 5 2 5 3 5 5 2 3 6 2 5 9 11 10 8 5 4 4 3 3 3 4 4 4 7 10 13 17 19 21 23 24 24 25 26 27 27 28 29 29 28 28 29 29 29 29 30 29 30 30 30 30 30 30 29 29 29 29 29 29 28 28 27 26
3 5 2 2 4 3 7 4 2 1 1 4 5 5 4 2 1 3 4 2 4 5 3 2 4 2 4 2 2 3 5 3 5 8 7 8 8 6 5 4 3 3 3 3 4 4 6 9 12 14 17 19 20 21 22 24 25 26 26 27 28 27 26 27 28 28 29 29 28 28 29 29 28 29 29 29 28 28 28 28 29 29 29 29 28 27
3 6 2 5 3 3 8 6 5 5 3 4 5 5 5 4 4 4 4 3 4 4 3 2 2 2 3 1 3 2 4 3 5 6 5 6 5 4 4 4 3 3 3 3 4 4 7 9 11 12 15 16 17 19 21 22 23 24 25 25 25 25 24 25 26 27 27 28 27 28 28 28 28 27 27 27 26 26 26 26 26 27 27 27 26 26
3 6 6 3 1 5 6 4 5 6 1 2 3 5 2 4 5 3 3 5 3 3 3 2 3 3 3 1 2 3 4 5 5 5 6 5 4 4 4 4 4 3 3 3 3 4 6 8 10 11 13 14 15 17 18 20 21 22 22 22 22 22 22 22 23 24 25 25 26 26 26 26 26 26 26 25 25 25 25 26 26 26 26 25 25 25
2 5 5 2 1 3 5 3 3 3 2 1 3 3 4 4 5 2 3 0 2 2 4 2 2 2 1 0 1 4 4 3 3 4 6 5 5 5 4 4 4 3 3 3 3 4 6 8 10 11 12 13 13 15 16 17 18 19 19 19 19 19 19 20 20 21 21 22 23 24 24 24 24 25 24 24 24 25 25 26 26 26 26 26 26 26
2 4 5 1 2 3 2 2 2 2 3 5 2 5 3 1 4 3 1 2 2 3 4 1 3 3 1 2 0 2 3 5 5 4 5 5 5 5 5 4 4 4 4 3 4 5 6 8 9 10 11 11 12 12 13 14 14 15 16 17 17 17 17 17 18 18 19 20 21 21 22 23 23 23 23 23 24 24 25 26 27 27 27 27 27 28
1 3 6 1 4 2 3 3 2 3 2 4 4 3 3 1 1 1 2 2 2 4 4 4 5 3 4 4 4 6 10 9 7 6 6 7 7 6 6 5 5 5 4 4 4 4 5 7 9 10 10 9 10 10 10 11 11 13 14 15 15 15 15 16 16 17 18 18 19 19 19 20 20 21 22 23 23 25 26 26 27 27 27 27 28 28
1 2 5 2 1 1 4 3 2 3 2 2 0 1 1 3 4 2 2 3 3 4 4 5 6 4 5 5 8 12 13 12 11 9 8 9 8 7 6 6 6 5 5 5 4 4 6 8 8 9 10 9 9 8 7 8 9 10 11 11 12 13 13 14 15 16 16 16 17 17 17 17 18 19 20 21 22 24 25 26 26 27 27 28 28 28
1 2 4 3 3 0 1 2 5 5 2 1 1 2 1 1 1 1 1 2 3 3 3 4 5 5 4 3 7 11 11 12 13 11 9 8 8 8 7 7 6 6 6 5 5 5 7 9 7 7 8 7 7 7 6 6 6 7 7 8 9 9 10 11 12 12 13 13 13 14 15 15 15 17 18 19 21 22 24 25 25 26 27 28 28 29
1 2 3 2 2 2 4 3 4 6 5 4 3 3 3 2 1 2 4 1 2 3 4 4 5 6 4 2 4 6 8 11 12 11 9 9 9 8 7 7 7 6 6 6 5 6 9 9 8 7 7 7 7 7 7 6 6 5 4 4 4 4 5 5 6 7 7 8 9 9 11 13 13 14 17 18 20 22 24 25 25 25 26 27 28 28
2 3 1 3 3 5 4 2 1 4 5 5 2 2 3 3 4 3 5 3 1 1 2 2 3 4 2 2 1 5 8 10 11 10 10 9 8 8 7 7 6 6 6 6 6 8 11 11 10 9 8 8 8 8 8 8 7 6 6 5 4 3 2 2 2 2 3 3 5 5 7 9 9 10 14 16 18 21 23 25 25 25 26 27 27 28
2 3 1 3 4 3 3 4 4 3 4 3 1 1 2 2 3 4 4 2 1 2 1 0 3 3 2 4 2 5 6 8 8 8 8 7 6 7 7 7 6 6 6 6 6 8 11 11 10 10 10 10 10 10 9 9 8 7 6 5 4 3 2 2 2 1 2 3 4 5 6 8 8 9 12 14 17 20 22 24 25 25 26 26 27 28
1 1 2 1 3 5 4 4 5 5 2 1 1 1 1 3 4 2 1 2 1 3 5 4 5 4 2 4 4 5 6 6 6 6 5 5 5 6 6 6 6 6 6 6 6 7 8 9 10 12 12 12 12 11 10 9 8 7 5 4 3 2 1 2 3 4 5 6 7 8 9 10 11 12 14 15 18 20 22 24 25 25 25 26 27 28
2 3 3 3 5 8 7 4 3 2 1 1 1 1 0 3 4 2 1 1 2 3 4 4 5 4 3 3 3 3 5 6 6 5 4 4 5 6 5 5 6 5 6 7 6 6 7 9 12 13 13 14 13 13 11 10 8 6 4 3 3 4 4 5 5 6 6 7 7 9 10 12 14 15 17 19 21 23 25 26 26 26 26 26 26 27
2 2 2 5 8 8 6 6 5 3 2 2 2 3 4 4 4 4 2 3 2 1 3 6 5 4 6 5 3 4 5 6 6 5 5 5 5 5 5 5 6 6 6 7 6 6 7 8 12 15 16 16 15 14 11 9 7 6 5 5 6 6 6 6 5 5 5 5 6 8 11 14 16 19 22 23 25 26 27 27 27 27 28 27 27 28
4 2 4 5 6 5 3 5 3 3 3 5 4 6 8 6 5 6 5 4 2 1 5 9 6 4 9 9 6 7 7 6 6 7 6 6 6 5 5 5 6 6 6 6 6 7 7 8 11 15 15 13 12 10 8 5 4 3 3 5 6 6 6 5 5 4 4 6 8 10 13 16 18 21 24 26 27 27 28 28 28 28 29 29 28 29
4 3 3 3 4 4 3 4 4 2 2 4 5 8 10 9 7 6 6 7 7 6 8 10 7 7 11 11 6 7 8 7 8 8 6 5 5 5 6 7 7 7 7 7 7 8 8 7 8 10 9 8 6 5 3 2 2 3 5 6 6 6 6 5 6 6 7 9 12 14 17 20 22 25 26 27 28 28 28 29 29 30 30 30 30 30
3 2 1 2 3 4 1 2 4 3 2 3 7 10 10 11 9 6 8 11 10 9 11 12 11 13 13 10 7 6 8 7 6 5 4 4 5 7 8 9 8 8 8 8 8 7 6 6 7 8 8 8 8 7 6 5 5 5 5 5 5 5 6 7 8 10 12 14 16 19 21 23 25 26 27 27 28 29 29 30 30 31 31 32 33 33
0 1 1 2 0 4 2 1 2 2 2 4 8 11 10 9 8 8 10 9 6 9 12 11 11 14 11 5 4 4 3 4 3 4 5 5 6 8 9 8 7 7 7 7 6 5 5 6 10 12 13 12 10 8 6 5 4 3 3 4 4 6 7 9 11 13 15 18 20 21 23 24 25 26 26 27 28 29 30 31 32 33 34 35 36 36
1 1 1 4 2 4 3 2 0 2 3 6 12 15 14 11 9 9 8 7 9 10 10 7 7 11 9 3 2 3 2 4 6 6 5 5 6 8 8 7 7 7 7 6 6 6 6 7 10 13 14 12 9 7 6 4 2 1 1 3 5 7 9 11 13 16 18 19 20 21 22 23 24 25 26 26 26 28 29 31 34 35 36 37 37 37
3 3 1 3 2 4 2 4 1 4 5 8 11 10 11 10 8 8 8 10 10 7 6 7 8 9 8 5 4 4 4 6 6 6 5 5 6 7 7 7 7 7 6 7 7 7 7 9 12 14 14 12 10 8 6 5 3 1 1 3 6 8 10 13 15 17 19 19 20 20 21 22 23 24 24 25 26 28 30 32 34 34 34 36 36 36
5 5 4 4 3 3 4 5 2 2 6 9 4 4 6 7 7 9 10 10 8 6 6 7 6 7 6 6 7 8 7 6 6 5 5 5 6 6 6 6 6 6 6 7 8 8 10 12 13 14 13 12 10 9 7 5 2 1 2 4 7 10 12 15 16 17 18 18 19 20 20 20 21 22 24 26 28 30 31 31 32 32 32 33 35 36
5 5 3 3 2 2 4 4 2 8 9 5 1 2 6 7 8 7 8 8 8 8 8 7 7 8 8 8 9 8 5 4 5 4 4 4 5 6 6 6 6 6 6 7 6 8 12 15 15 15 14 12 10 8 6 4 2 2 4 6 9 12 14 16 17 17 17 17 17 18 18 19 21 24 26 28 29 30 31 31 31 31 31 32 34 35
5 4 2 2 2 1 2 4 7 7 4 6 6 3 2 3 3 1 5 9 9 9 8 8 10 10 9 8 6 3 2 3 2 1 4 4 4 6 6 6 6 6 8 9 10 13 16 17 17 17 15 13 10 8 5 3 2 4 6 8 11 14 15 16 17 17 16 16 15 16 18 20 23 25 27 28 29 30 31 31 31 30 31 32 34 34
5 4 1 2 3 3 3 6 6 5 8 13 11 3 3 3 5 4 4 8 7 7 8 8 10 10 8 5 3 2 4 4 2 3 5 5 5 6 6 7 8 10 10 13 15 16 17 17 16 16 15 13 10 7 4 3 5 6 8 10 12 15 15 16 16 16 15 15 15 17 20 21 23 25 26 27 29 30 31 30 31 31 30 31 34 34
3 4 4 5 4 3 4 6 6 6 10 11 6 1 2 3 6 7 4 5 5 5 8 8 8 7 4 3 4 3 4 3 2 5 5 5 5 5 5 8 12 13 12 13 13 14 15 16 15 14 13 12 9 6 5 5 6 8 10 12 13 14 15 15 15 14 15 16 18 20 21 22 23 25 26 27 28 29 30 30 31 31 30 30 33 34
2 1 3 5 4 4 5 5 5 7 9 7 5 4 3 3 5 6 2 5 6 5 6 6 5 5 5 6 6 5 4 3 5 5 5 6 6 6 6 8 10 11 12 13 15 17 18 17 15 14 12 10 8 6 6 6 7 9 10 12 13 14 14 14 14 14 16 18 20 21 22 22 23 24 26 27 28 29 30 31 31 31 30 30 31 34
3 1 2 5 7 7 7 5 4 5 6 5 4 4 2 3 6 8 1 7 6 4 6 7 6 7 7 7 6 6 6 6 6 5 6 8 8 8 9 8 8 10 12 14 17 18 18 17 16 14 12 9 8 6 6 7 8 9 11 12 13 13 13 13 14 15 18 19 20 21 21 22 24 24 25 27 28 29 30 30 30 31 31 32 32 33
1 1 2 5 7 9 9 6 4 5 5 5 5 5 4 3 5 4 5 7 4 5 6 7 8 8 7 7 6 6 7 8 6 4 6 7 7 8 10 9 8 10 14 17 18 18 18 17 14 13 10 8 6 5 6 8 9 11 12 12 13 13 12 13 15 17 18 19 20 21 22 23 24 25 26 26 28 30 30 30 30 30 31 32 33 32
2 1 2 4 5 5 5 4 4 6 5 7 5 3 4 4 2 5 6 4 5 7 7 7 8 8 7 8 8 8 8 8 5 4 6 7 7 7 7 7 8 10 14 16 17 18 18 15 13 11 9 7 6 6 7 9 10 11 12 13 13 13 13 14 16 16 17 19 20 22 23 24 24 25 26 27 27 30 31 31 30 30 30 31 32 31
5 4 2 4 3 2 2 4 5 6 5 9 8 1 2 5 5 5 4 3 5 7 7 7 8 7 7 9 10 10 9 7 6 6 6 7 7 7 9 11 13 15 16 17 18 17 16 14 12 10 8 6 6 7 8 10 11 11 12 13 13 12 14 15 15 16 18 19 21 22 23 24 24 25 26 27 27 29 31 32 31 30 30 30 30 30
4 5 4 4 3 4 4 6 6 4 3 8 8 4 6 8 7 5 5 5 5 5 5 6 7 7 9 10 10 10 9 7 7 6 6 6 7 8 10 13 15 16 18 19 18 17 15 13 11 9 7 6 6 8 9 10 11 12 13 13 12 13 14 15 15 17 19 20 22 23 24 24 25 25 26 26 27 28 30 31 31 30 29 29 28 28
6 6 5 4 4 5 5 6 5 3 3 7 8 6 8 11 9 6 6 5 5 5 5 5 6 8 9 10 9 9 8 8 8 7 7 7 8 8 10 13 16 18 19 19 18 16 14 12 10 7 6 6 6 8 9 11 12 13 14 13 12 13 14 15 16 18 19 21 22 23 24 25 25 25 26 25 26 27 29 30 31 30 29 28 27 27
6 4 3 1 2 4 4 4 4 2 3 7 9 8 8 9 7 6 6 6 6 6 5 5 7 8 9 9 8 8 8 8 8 7 8 8 7 8 10 13 15 18 19 18 17 15 12 9 8 6 5 6 7 9 10 11 12 13 13 12 12 12 13 15 17 19 20 21 23 23 24 25 26 26 26 26 25 26 28 29 29 29 29 29 27 27
3 3 3 2 3 3 4 4 6 6 6 9 11 11 10 8 5 5 7 7 6 6 7 7 8 9 8 8 9 9 10 9 8 8 7 7 7 7 10 12 15 17 19 19 17 14 11 8 7 6 6 7 8 9 11 12 11 11 12 12 12 12 13 15 17 19 21 22 23 24 24 24 25 26 26 26 26 26 28 28 28 27 28 29 28 27
2 3 4 5 7 5 4 6 7 7 6 6 8 9 8 9 8 7 7 7 7 7 7 7 8 7 6 7 9 10 11 10 9 9 8 7 7 7 10 14 16 17 16 16 15 12 10 8 6 6 7 8 8 10 12 12 11 10 11 11 11 12 14 16 17 19 21 22 23 24 23 23 24 25 26 26 26 26 28 29 28 27 28 29 29 27
2 2 4 5 6 3 3 7 8 5 6 8 9 9 8 9 9 8 8 8 7 8 7 7 7 8 8 9 9 9 10 10 9 9 9 7 6 8 11 14 16 17 16 15 13 11 9 7 6 6 8 9 9 11 12 11 10 10 10 10 10 11 14 16 18 19 21 22 23 23 23 23 24 24 25 26 26 26 27 29 28 27 27 30 30 28
2 6 5 4 3 3 5 10 10 6 5 10 12 12 12 10 8 8 9 8 8 9 9 8 9 10 10 12 11 9 9 11 10 9 8 7 8 11 14 15 15 16 15 13 11 9 7 7 7 7 8 9 10 11 12 11 10 10 9 9 10 11 14 16 18 20 21 22 22 23 23 23 24 24 24 25 26 27 28 29 29 27 26 28 30 30
9 12 8 6 6 8 10 12 10 7 7 10 11 9 9 8 8 10 11 11 10 10 10 9 10 10 9 11 14 13 11 10 11 11 8 7 9 12 14 16 17 16 15 13 10 8 7 7 7 8 9 10 11 11 11 11 10 9 8 8 9 11 13 16 18 21 22 22 23 23 23 23 23 24 24 24 25 25 27 29 33 33 29 26 26 29
Wind_Direction
118 124 178 205 215 215 213 207 208 223 168 172 222 235 246 256 270 265 258 274 358 296 275 259 248 273 285 291 299 330 45 34 54 92 88 77 77 67 69 64 56 56 44 34 37 39 41 42 45 47 51 56 58 58 60 62 61 61 63 65 65 65 68 68 67 69 72 73 73 73 72 70 70 69 67 62 54 42 20 356 333 306 286 272 265 261
101 167 222 221 218 219 211 196 205 246 276 239 238 262 269 248 258 262 253 284 338 159 267 314 349 295 286 293 315 2 42 29 54 97 92 87 85 71 72 65 61 61 42 41 40 39 42 43 46 48 50 53 54 55 58 60 60 62 64 63 63 64 66 66 65 67 67 67 70 71 70 69 69 65 59 55 48 38 28 19 11 2 350 333 312 294
129 222 239 231 215 284 13 156 176 216 221 220 207 226 260 238 264 282 278 307 351 150 273 333 350 290 283 304 5 33 62 49 45 73 76 83 84 72 70 65 63 62 46 42 37 36 40 42 47 48 48 49 51 54 58 62 63 64 64 65 65 64 64 64 65 67 68 70 73 75 74 72 69 63 57 56 52 46 40 32 24 19 13 6 356 338
187 243 249 228 151 172 247 196 166 198 229 210 186 187 249 241 206 277 292 319 335 309 275 321 320 283 277 348 57 42 70 76 60 64 61 61 73 69 65 60 56 60 51 45 38 33 36 40 44 46 47 48 49 51 54 59 62 63 65 66 68 67 67 66 66 69 74 77 79 82 81 79 75 66 63 61 56 54 52 47 39 32 26 20 13 2
222 237 244 127 141 174 227 245 170 178 249 237 207 204 237 249 217 220 279 326 334 343 10 9 331 296 276 219 90 63 64 72 62 65 62 52 60 64 64 58 50 52 48 45 43 33 35 39 42 46 50 51 50 48 48 53 59 64 67 69 70 71 70 70 70 72 78 81 83 88 86 81 75 65 59 55 50 51 52 48 45 40 33 29 25 19
241 235 122 99 145 165 198 246 200 175 220 271 232 212 220 236 232 229 317 14 8 331 338 34 352 293 302 319 143 129 70 61 51 54 59 48 45 51 57 53 46 50 49 47 47 41 42 44 46 48 52 54 53 51 52 55 60 64 67 70 72 73 73 73 74 74 78 78 77 78 75 69 65 58 53 51 49 50 48 43 44 42 36 32 30 27
256 236 174 203 210 187 205 255 228 176 162 269 249 208 207 211 222 232 174 83 138 255 296 50 88 270 309 314 189 148 90 72 62 54 55 46 43 49 54 52 44 44 45 48 47 43 45 47 48 47 48 53 55 55 59 62 63 65 67 69 70 70 71 73 77 80 81 80 78 78 75 70 66 60 55 55 56 56 54 53 49 41 33 25 22 22
225 100 166 203 207 206 223 257 228 165 133 237 249 144 136 147 171 188 135 138 217 254 317 9 140 255 292 280 197 139 108 86 73 66 65 58 57 58 54 52 47 40 36 46 52 43 43 48 52 51 50 55 59 61 63 63 63 65 67 69 70 70 70 70 75 79 80 81 81 81 80 75 71 66 61 60 60 60 59 59 54 48 42 30 18 10
157 133 193 173 159 195 216 231 193 149 139 243 222 119 111 134 151 135 106 117 296 360 306 277 145 243 270 274 182 138 134 136 135 123 106 94 89 81 65 51 41 40 37 40 52 49 46 49 55 60 59 59 62 64 66 66 66 67 67 70 71 70 69 70 72 75 76 77 78 79 79 77 74 72 70 67 63 61 59 57 53 50 49 44 38 28
22 207 200 149 152 204 214 224 176 156 180 225 151 90 59 68 81 80 100 107 33 342 252 214 171 210 267 281 202 168 199 183 162 148 146 145 125 100 78 64 43 36 38 36 48 52 54 57 60 65 65 63 63 66 69 70 69 69 68 69 70 68 67 69 71 72 72 72 71 71 71 71 70 69 69 67 62 58 56 54 50 47 44 42 41 37
312 276 191 149 180 194 164 117 145 160 159 126 89 52 26 21 33 42 65 79 54 284 252 210 188 188 261 286 204 194 243 178 155 150 168 168 143 121 89 73 54 38 38 36 44 52 59 64 66 67 66 64 65 67 69 70 69 70 69 69 69 66 66 68 69 70 69 68 67 66 66 65 64 62 62 61 57 54 53 52 51 48 46 42 37 33
327 319 248 259 203 135 108 86 21 16 77 96 81 69 36 341 7 19 360 45 124 253 264 225 181 170 225 261 227 260 309 179 161 163 169 166 161 151 117 86 64 47 46 44 44 51 57 59 60 62 62 62 64 65 66 67 69 70 70 71 69 66 65 66 67 69 68 67 66 65 64 63 61 60 59 57 54 51 51 50 49 49 47 44 40 35
312 242 264 308 280 137 114 94 360 6 45 85 99 102 94 309 344 349 297 261 219 250 266 183 143 166 237 245 256 310 332 329 153 152 159 159 159 157 135 116 84 57 52 54 51 49 52 52 53 57 58 59 61 62 64 67 69 70 69 70 69 66 66 68 68 69 68 67 66 65 64 63 61 60 58 56 53 50 48 47 46 45 43 42 40 36
299 289 304 315 288 176 142 153 216 281 118 137 144 139 143 174 206 256 257 262 264 266 276 167 148 242 266 292 340 327 331 340 116 128 149 149 147 153 144 134 110 77 57 55 59 55 52 52 55 59 62 62 63 64 66 68 69 70 70 70 70 68 68 69 69 69 68 67 66 66 65 64 62 60 58 56 53 50 47 45 43 42 40 38 36 34
236 297 234 187 252 179 169 185 170 145 155 177 159 140 153 164 172 218 228 216 252 280 295 258 182 202 216 287 327 342 360 23 95 114 120 113 123 136 130 129 122 95 70 57 60 59 57 59 62 65 67 68 68 68 69 71 71 72 70 69 69 68 67 68 68 67 67 66 64 63 62 60 59 57 56 54 51 48 46 43 41 39 36 34 32 30
202 263 253 232 258 157 177 203 133 113 117 228 131 113 172 187 171 212 217 179 189 286 290 243 218 203 177 219 341 45 45 48 76 98 107 112 126 133 137 150 141 119 95 80 82 75 68 72 72 70 70 69 70 72 72 72 73 73 72 71 70 67 67 67 66 65 64 62 61 58 57 54 52 50 49 47 44 42 39 36 35 33 30 28 25 23
200 263 281 341 346 182 187 193 136 133 194 173 121 174 217 177 133 138 271 172 106 244 261 219 223 277 339 274 34 73 77 86 101 119 130 150 162 157 171 178 164 159 149 130 121 106 87 81 78 75 73 71 71 72 72 72 73 75 75 75 73 70 68 66 64 62 60 58 57 54 51 48 45 43 41 38 36 33 31 28 26 24 21 19 16 15
191 262 275 162 188 240 211 144 58 47 141 129 169 214 209 118 86 100 235 330 24 243 272 283 226 247 255 250 317 110 167 182 183 169 162 181 185 183 193 191 187 183 168 156 140 116 99 92 88 87 82 78 77 75 74 74 75 77 77 75 73 70 66 64 61 58 55 52 50 48 45 41 38 36 34 32 29 26 23 21 18 16 14 12 9 7
146 264 280 199 179 284 6 80 36 346 85 129 192 205 124 146 273 83 173 226 249 246 280 295 268 241 213 211 190 196 201 192 188 183 185 196 196 196 202 199 197 188 177 171 155 130 111 105 103 104 103 98 95 91 85 81 78 78 76 73 71 68 65 61 57 54 50 47 46 43 40 36 32 29 26 24 21 18 16 13 10 8 5 4 2 360
92 235 280 323 208 306 27 80 184 266 336 61 173 298 64 167 183 170 175 179 211 238 261 283 287 269 236 203 183 200 199 180 178 185 194 200 196 197 197 192 194 189 188 182 166 156 137 127 119 116 119 117 115 115 109 97 86 80 75 71 70 66 63 58 52 49 46 42 41 37 34 31 26 23 19 16 14 10 8 5 1 359 357 356 355 353
74 214 255 306 334 94 151 214 191 191 197 122 166 238 260 213 168 247 232 136 155 206 226 255 270 265 257 200 187 203 192 174 179 181 188 201 201 202 199 192 192 189 187 182 168 162 155 150 145 137 137 136 136 139 135 120 105 91 82 76 70 64 61 57 52 49 45 41 38 33 30 24 18 15 11 8 7 3 360 357 354 352 349 348 347 347
164 185 221 274 312 189 221 243 183 169 160 149 173 200 193 169 136 250 260 200 140 191 191 207 259 271 267 245 217 195 171 172 179 176 182 201 202 200 204 198 192 188 183 178 171 163 163 170 176 168 162 157 151 152 149 143 140 132 125 112 99 89 83 76 67 62 57 50 42 34 27 19 11 6 2 359 357 353 351 348 347 346 343 341 340 340
131 114 167 247 240 215 233 286 164 165 141 135 169 172 157 148 132 179 235 233 188 234 156 147 248 266 281 298 248 162 162 169 174 175 182 197 201 198 202 200 190 184 180 175 172 170 173 182 187 183 181 179 175 177 179 180 181 181 183 184 188 186 168 161 136 80 63 49 37 28 18 11 5 356 352 350 347 343 341 339 339 339 336 335 334 332
86 92 152 266 292 302 310 340 358 32 91 117 276 82 133 166 147 167 205 183 158 253 237 168 252 248 320 346 58 129 148 157 167 183 185 189 204 204 200 196 186 180 178 176 176 177 181 186 190 193 198 198 196 194 192 191 191 191 192 192 198 206 207 220 247 307 340 351 358 357 352 353 351 342 340 340 337 335 334 332 332 332 331 330 328 327
191 143 132 212 304 313 316 331 344 352 43 140 269 321 76 108 103 92 107 100 131 219 198 214 250 252 326 9 50 103 135 160 188 199 187 189 203 207 203 192 183 178 175 177 178 180 187 194 201 208 209 205 201 198 194 192 192 191 191 197 215 233 266 302 304 316 328 330 335 342 344 345 345 339 335 334 332 330 329 328 327 327 326 326 325 323
180 180 143 160 227 249 253 245 242 269 281 165 224 280 130 129 127 115 144 172 227 227 194 212 247 274 329 14 50 110 160 190 223 228 214 218 212 204 202 188 178 176 177 183 186 186 195 205 212 215 212 208 205 201 198 196 195 198 206 230 276 292 296 307 314 316 321 328 335 343 345 343 340 337 335 333 331 329 328 326 326 325 324 323 322 319
111 189 195 189 220 238 225 216 211 152 146 220 245 238 235 217 163 151 184 202 207 255 250 241 241 265 278 262 201 198 211 214 232 240 233 234 227 213 204 188 180 182 186 189 190 193 202 212 217 217 213 208 205 203 205 209 217 231 250 276 293 296 295 305 317 322 330 342 346 342 338 335 333 332 331 330 329 327 326 325 325 324 324 323 321 318
109 230 242 203 232 247 161 179 195 129 163 216 240 257 256 239 167 158 193 210 177 205 251 249 238 233 261 259 205 190 219 233 239 243 236 228 222 209 195 182 181 189 196 193 190 194 201 208 214 215 212 210 213 218 225 233 251 276 306 319 319 320 323 331 339 343 347 343 337 330 326 324 323 323 323 323 321 320 320 320 321 321 321 320 318 316
125 230 243 166 238 262 129 145 171 158 207 222 232 251 260 256 230 196 214 223 214 227 248 256 252 238 254 264 235 190 207 226 233 236 236 232 208 181 176 178 184 192 193 191 192 196 201 208 213 213 215 216 215 210 192 155 79 41 28 14 3 356 351 344 337 332 330 328 326 324 322 320 319 318 318 317 315 314 314 315 315 315 315 314 314 313
129 222 212 151 245 272 192 166 178 174 212 244 246 246 248 256 251 230 234 237 228 233 247 257 262 260 258 255 239 216 210 215 228 233 234 231 199 176 176 179 182 189 190 193 200 202 203 202 192 183 175 165 154 141 122 96 69 45 31 22 11 356 344 334 327 324 323 324 323 321 320 318 317 315 315 314 313 313 313 313 313 312 312 311 311 310
110 171 139 107 317 295 301 129 140 145 179 250 269 263 256 259 257 241 239 242 237 241 247 250 258 265 263 222 200 234 203 165 197 214 213 213 193 175 175 178 182 192 202 206 196 181 172 163 155 149 142 136 128 119 107 87 71 47 16 358 338 330 328 322 319 320 321 322 321 319 317 315 314 313 313 313 313 313 313 312 312 312 311 311 311 310
153 172 52 77 98 275 284 120 119 4 2 284 274 268 260 255 251 247 236 222 222 232 242 245 247 258 261 229 207 255 180 168 200 206 200 205 189 172 172 180 191 203 209 199 171 159 160 154 147 142 137 132 130 127 124 121 115 84 336 321 316 317 315 315 316 317 318 319 317 315 314 313 312 312 314 314 313 312 311 310 309 310 311 311 310 310
145 147 136 120 157 259 230 164 193 19 358 285 268 259 254 246 238 244 246 237 225 206 207 226 231 244 257 274 287 264 215 201 209 201 193 193 186 180 177 180 195 209 201 177 169 171 174 168 159 150 143 142 146 145 144 150 157 171 295 303 307 308 308 311 313 314 314 315 314 314 314 314 313 313 313 313 311 309 308 308 308 309 309 308 307 307
151 149 166 171 177 221 180 142 91 319 268 263 241 172 211 221 213 225 242 244 221 187 200 228 243 255 258 261 262 254 235 210 196 197 199 180 167 177 190 193 202 207 189 175 178 182 177 170 160 152 149 152 154 152 153 161 168 217 274 291 300 305 309 311 312 313 313 314 315 315 315 314 312 311 310 309 309 308 308 308 308 308 307 306 305 305
167 163 171 176 180 202 156 127 205 241 245 263 339 180 208 203 194 214 248 253 223 208 221 238 252 253 242 237 243 249 243 203 172 184 207 193 176 174 186 206 208 191 180 180 184 183 177 171 164 158 157 158 159 160 166 177 193 238 268 293 302 306 310 311 312 315 316 317 317 314 312 310 308 308 308 308 309 309 308 308 307 307 307 306 305 304
169 170 165 157 164 167 137 181 226 250 294 302 286 261 174 168 153 156 283 263 228 206 208 226 241 242 237 245 253 239 182 141 108 257 241 233 215 184 181 201 198 180 178 182 185 188 187 182 175 169 164 162 166 172 179 205 251 268 284 299 305 308 311 312 314 317 318 317 314 308 306 307 307 308 309 309 310 309 309 309 308 308 308 307 306 305
165 167 188 198 201 208 209 223 246 307 308 281 267 221 158 191 164 152 248 260 230 193 189 209 236 242 241 245 229 148 126 102 38 296 262 254 234 197 191 192 177 177 191 197 198 198 192 184 176 171 167 167 172 180 197 242 269 283 297 305 308 310 312 314 315 318 316 310 306 305 306 308 309 309 309 310 310 310 310 310 309 308 309 308 306 305
179 183 191 213 227 214 221 243 255 265 266 263 258 209 200 203 166 158 205 266 259 213 194 196 215 227 218 192 175 144 106 111 248 258 244 245 234 195 197 195 183 190 206 205 196 186 177 174 172 171 173 174 177 192 221 250 273 290 302 309 312 313 313 315 315 313 308 304 304 307 309 310 310 310 311 310 310 309 309 309 308 307 308 306 304 303
170 166 171 202 227 210 212 233 232 238 255 260 248 245 234 181 139 110 80 279 262 223 188 179 189 194 184 179 174 147 126 180 247 252 217 218 222 199 198 203 198 208 216 204 188 177 172 173 172 171 176 181 187 207 232 257 281 299 308 314 316 314 313 314 311 305 301 303 306 308 310 312 312 312 311 310 309 308 308 307 306 306 306 304 303 302
157 127 165 206 223 219 221 238 239 240 254 249 228 224 203 153 102 88 48 268 253 203 177 173 188 203 195 184 170 161 178 208 236 238 204 204 215 207 199 200 199 199 193 184 181 177 174 174 174 174 180 188 198 218 248 274 294 309 317 319 316 314 313 308 302 299 301 304 308 310 313 315 314 313 312 310 310 309 307 305 305 305 305 304 303 302
148 186 209 215 224 224 222 231 257 257 238 211 205 193 164 111 81 119 220 239 209 191 192 182 193 205 191 178 177 189 211 220 219 205 187 191 207 213 212 210 201 188 180 176 175 174 174 175 179 182 186 194 209 238 270 290 307 317 320 318 315 312 309 302 299 302 305 308 311 313 315 316 315 314 313 312 311 309 307 305 305 304 304 304 303 302
147 177 239 218 220 232 228 227 258 269 228 174 170 188 159 136 167 220 227 212 175 192 201 195 204 208 190 187 198 209 222 223 205 179 175 183 194 205 204 186 163 162 169 171 173 175 176 176 180 185 190 205 231 265 287 300 314 320 318 316 315 312 305 302 304 308 310 312 314 315 316 317 316 316 315 314 313 310 307 307 306 305 305 304 303 302
163 159 214 219 190 166 214 223 237 259 219 150 133 122 193 188 210 219 222 231 205 194 194 201 211 207 193 199 211 218 225 224 208 197 192 191 195 194 185 176 169 168 171 173 177 181 182 181 183 190 201 222 254 282 298 309 317 319 316 315 314 309 305 307 311 313 313 314 315 316 317 318 318 317 316 315 314 310 307 308 308 306 306 304 303 303
175 164 192 222 185 152 192 216 215 227 197 157 153 175 201 208 214 191 182 220 228 201 188 203 217 211 199 204 215 218 223 230 225 214 202 197 201 196 187 185 182 178 178 180 182 185 187 189 189 195 212 241 271 291 302 312 317 315 314 314 312 307 308 312 315 315 315 316 316 317 318 318 318 318 317 316 315 311 308 308 308 307 306 304 303 304
216 192 173 189 194 181 195 212 216 215 184 181 192 199 203 216 220 190 176 203 219 206 189 194 221 221 205 208 218 219 222 229 225 215 206 200 199 197 192 191 188 185 184 184 184 186 190 193 195 203 227 257 283 297 304 312 315 312 310 311 310 310 314 316 316 315 316 317 318 319 319 318 318 318 317 317 315 311 308 308 307 305 305 305 304 304
231 193 142 147 225 233 229 207 203 230 205 196 210 218 215 221 215 181 185 214 221 209 193 192 217 222 208 205 215 225 233 232 225 220 214 202 198 196 192 189 188 186 185 183 183 187 190 194 204 220 244 271 288 297 303 310 312 309 307 310 313 316 318 317 315 315 316 318 319 320 320 318 318 318 318 316 314 311 308 306 304 303 303 304 304 302
262 172 154 207 219 223 236 209 195 210 206 194 208 225 234 240 227 179 188 218 226 215 207 209 218 222 210 198 204 222 235 232 223 222 213 200 199 196 188 187 187 187 188 186 185 189 192 198 216 241 265 283 293 297 302 309 311 306 305 310 317 320 318 316 315 316 317 319 319 319 319 318 317 317 316 314 313 311 308 305 303 301 301 302 302 299
249 152 165 221 225 213 231 237 221 221 227 214 213 223 232 240 238 216 207 223 231 228 223 218 213 215 216 208 207 220 235 233 221 216 210 200 197 193 190 193 190 187 187 188 188 191 199 212 233 259 276 287 295 297 301 309 310 304 306 313 319 320 317 316 317 318 318 319 319 319 319 318 316 315 314 312 312 310 308 307 304 301 300 301 300 295
121 161 177 202 219 220 253 254 244 251 278 264 242 227 226 229 231 230 230 232 233 238 240 231 217 213 217 222 218 217 230 236 224 208 202 197 192 195 196 194 189 185 183 184 189 197 211 230 248 265 278 288 294 297 303 309 308 307 313 318 320 320 318 318 320 319 318 319 319 318 319 318 316 314 312 311 311 309 308 307 304 299 299 302 300 293
163 228 208 169 199 214 218 233 231 220 243 250 240 228 225 221 217 227 239 240 234 234 236 237 238 230 224 230 229 217 223 236 225 201 197 199 197 199 194 184 179 179 181 184 193 206 224 245 260 271 282 290 295 298 304 308 308 312 317 319 321 322 320 321 321 318 317 319 318 317 318 316 315 314 313 311 311 310 310 309 306 301 298 299 299 297
215 226 211 185 215 229 227 230 224 203 221 246 248 234 219 206 202 219 234 238 235 231 226 231 242 243 234 233 227 214 216 230 216 195 193 200 198 193 187 180 178 178 180 188 198 212 232 251 264 274 283 291 295 299 305 308 308 313 319 319 321 322 322 323 320 316 316 317 316 316 316 314 313 314 313 312 311 311 310 310 311 312 311 305 301 300